{"data":{"norad_id":65768,"epoch":"2026-09-20T16:16:43.933728Z","epoch_age_seconds":131337,"freshness":"FRESH","line1":"1 65768U 25217G   26263.67828627  .00001660  00000+0  24652-3 0  9998","line2":"2 65768  51.8987 258.3361 0000699  31.2367 328.8637 14.79957341 53786","mean_motion":14.79957341,"eccentricity":6.99e-5,"inclination_deg":51.8987,"raan_deg":258.3361,"arg_perigee_deg":31.2367,"mean_anomaly_deg":328.8637,"bstar":0.00024652,"rev_number":5378,"period_min":97.300101841246,"perigee_km":628.96896077701,"apogee_km":629.94862266869,"semimajor_km":7007.5957917229,"source":"CELESTRAK","updated_at":"2026-09-21T09:00:15.557680Z"}}